Overview Statistics Trail Chart Weather Telemetry Raw packets
 

This is the latest recevied weather packets stored in our database for station/object 9W2XPF-13. If no packets are shown the sender has not sent any weather packets the latest 10 day(s).

<< 105 106 107 108 109 110 111 >>
Time Temp. Humidity Pressure Rain* Wind** Luminosity Snow
1777290721 26.11° C 95% 1008.1 hPa 4.83 mm - - -
1777290601 26.11° C 95% 1008.1 hPa 4.83 mm - - -
1777290481 26.11° C 95% 1008 hPa 4.83 mm - - -
1777290361 26.11° C 94% 1008.1 hPa 4.83 mm - - -
1777290241 26.11° C 94% 1008 hPa 4.83 mm - - -
1777290121 26.11° C 94% 1008 hPa 4.83 mm - - -
1777290001 26.11° C 94% 1007.9 hPa 4.83 mm - - -
1777289881 26.11° C 94% 1007.7 hPa 4.83 mm - - -
1777289761 26.11° C 94% 1007.6 hPa 4.83 mm - - -
1777289641 26.11° C 94% 1007.5 hPa 4.83 mm - - -
1777289521 26.11° C 93% 1007.7 hPa 4.83 mm - - -
1777289401 26.67° C 93% 1007.6 hPa 4.83 mm - - -
1777289281 26.67° C 93% 1007.7 hPa 4.83 mm - - -
1777289161 26.67° C 93% 1007.5 hPa 4.83 mm - - -
1777289041 26.67° C 92% 1007.4 hPa 4.83 mm - - -
1777288921 26.67° C 92% 1007.7 hPa 4.57 mm - - -
1777288801 26.67° C 92% 1007.4 hPa 4.32 mm - - -
1777288681 26.67° C 91% 1007.4 hPa 3.3 mm - - -
1777288561 27.22° C 91% 1007.4 hPa 3.05 mm - - -
1777288441 27.22° C 90% 1007.5 hPa 2.79 mm - - -
1777288321 27.22° C 90% 1007.4 hPa 2.29 mm - - -
1777288201 27.22° C 89% 1007.4 hPa 0.25 mm - - -
1777288081 27.22° C 89% 1007.2 hPa 0 mm - - -
1777287961 27.22° C 89% 1007.2 hPa 0 mm - - -
1777287841 27.22° C 89% 1007.1 hPa 0 mm - - -

* Rain latest hour (hover to see other rain measurements)
** Current wind speed in m/s (hover to see current wind gust speed)